Date String (YYYY-MM-DD hh:mm:ss) UTC,Instrument flags,absolute air pressure of the measurement (hPa),sample flow rate (lpm),inlet stack bypass flow (lpm),air temperature of the measurement (°C),ambient temperature measured by the external sensor (°C),aerosol sample conditioner tube jacket temperature (°C),OPC LED temperature (°C),internal box temperature (°C),relative humidity of the measurement (%),span deviation,mass concentration of particles derived from Lorenz-Mie calculation of OPC scattering (μg/m³),mass concentration of particles derived from Lorenz-Mie calculation of OPC scattering (μg/m³),mass concentration of particles derived from Lorenz-Mie calculation of OPC scattering (μg/m³)
DateTimeUTC,F1_M11,P_M11,Q1_M11,Q2_M11,T1_M11,T2_M11,T3_M11,T4_M11,T5_M11,U1_M11,ZSPAN_M11,X0_M11,X2_M11,X1_M11
2024-04-26 00:00:00,SystemResetWarning,0817.7,5.01,000.00,025.3,024.6,000.0,033.8,027.0,019.3,0000.0,0009.11,0003.72,0002.96
2024-04-26 00:01:00,SystemResetWarning,0817.7,5.00,000.00,025.3,024.5,000.0,033.8,027.0,019.3,0000.0,0008.92,0003.72,0002.98
2024-04-26 00:02:00,SystemResetWarning,0817.8,4.99,000.00,025.3,024.5,000.0,033.8,026.9,019.3,0000.0,0008.74,0003.70,0002.99
2024-04-26 00:03:00,SystemResetWarning,0817.8,5.00,000.00,025.3,024.5,000.0,033.8,026.9,019.4,0000.0,0008.51,0003.71,0003.01
2024-04-26 00:04:00,SystemResetWarning,0817.8,5.00,000.00,025.2,024.4,000.0,033.8,026.9,019.7,0000.0,0008.20,0003.74,0003.05
2024-04-26 00:05:00,SystemResetWarning,0817.8,5.00,000.00,025.2,024.4,000.0,033.8,026.9,019.6,0000.0,0008.26,0003.80,0003.09
2024-04-26 00:06:00,SystemResetWarning,0817.8,5.00,000.00,025.2,024.4,000.0,033.8,026.9,019.2,0000.0,0008.14,0003.83,0003.12
2024-04-26 00:07:00,SystemResetWarning,0817.8,5.01,000.00,025.2,024.4,000.0,033.8,026.9,019.2,0000.0,0008.22,0003.84,0003.12
2024-04-26 00:08:00,SystemResetWarning,0817.8,5.01,000.00,025.2,024.4,000.0,033.7,026.9,019.3,0000.0,0007.90,0003.79,0003.09
2024-04-26 00:09:00,SystemResetWarning,0817.8,4.98,000.00,025.2,024.4,000.0,033.7,026.8,019.6,0000.0,0008.17,0003.76,0003.03
2024-04-26 00:10:00,SystemResetWarning,0817.8,4.99,000.00,025.1,024.3,000.0,033.7,026.8,020.1,0000.0,0008.52,0003.75,0002.98
2024-04-26 00:11:00,SystemResetWarning,0817.8,5.02,000.00,025.1,024.3,000.0,033.7,026.8,020.3,0000.0,0009.00,0003.75,0002.93
2024-04-26 00:12:00,SystemResetWarning,0817.8,5.01,000.00,025.1,024.3,000.0,033.7,026.8,020.5,0000.0,0009.16,0003.73,0002.89
2024-04-26 00:13:00,SystemResetWarning,0817.7,4.99,000.00,025.1,024.3,000.0,033.7,026.8,020.6,0000.0,0009.09,0003.70,0002.84
2024-04-26 00:14:00,SystemResetWarning,0817.7,4.99,000.00,025.1,024.3,000.0,033.7,026.8,020.6,0000.0,0009.11,0003.69,0002.80
2024-04-26 00:15:00,SystemResetWarning,0817.8,5.01,000.00,025.1,024.2,000.0,033.7,026.8,020.8,0000.0,0009.29,0003.64,0002.75
2024-04-26 00:16:00,SystemResetWarning,0817.7,5.00,000.00,025.0,024.2,000.0,033.7,026.7,020.8,0000.0,0009.19,0003.54,0002.67
2024-04-26 00:17:00,SystemResetWarning,0817.7,4.99,000.00,025.0,024.2,000.0,033.6,026.7,020.6,0000.0,0009.80,0003.50,0002.60
2024-04-26 00:18:00,SystemResetWarning,0817.7,5.00,000.00,025.0,024.2,000.0,033.6,026.7,020.7,0000.0,0009.85,0003.48,0002.54
2024-04-26 00:19:00,SystemResetWarning,0817.8,5.01,000.00,025.0,024.2,000.0,033.6,026.7,020.8,0000.0,0010.00,0003.47,0002.51
2024-04-26 00:20:00,SystemResetWarning,0817.7,5.00,000.00,025.0,024.1,000.0,033.6,026.7,020.6,0000.0,0009.68,0003.45,0002.47
2024-04-26 00:21:00,SystemResetWarning,0817.7,4.99,000.00,025.0,024.1,000.0,033.6,026.7,020.6,0000.0,0009.40,0003.40,0002.43
2024-04-26 00:22:00,SystemResetWarning,0817.8,5.00,000.00,024.9,024.1,000.0,033.6,026.7,020.6,0000.0,0009.13,0003.32,0002.39
2024-04-26 00:23:00,SystemResetWarning,0817.7,4.99,000.00,024.9,024.1,000.0,033.6,026.7,020.5,0000.0,0009.19,0003.30,0002.34
2024-04-26 00:24:00,SystemResetWarning,0817.7,5.00,000.00,024.9,024.1,000.0,033.6,026.6,020.5,0000.0,0009.14,0003.26,0002.30
2024-04-26 00:25:00,SystemResetWarning,0817.7,5.00,000.00,024.9,024.1,000.0,033.5,026.7,020.4,0000.0,0009.71,0003.20,0002.26
2024-04-26 00:26:00,SystemResetWarning,0817.6,5.00,000.00,024.9,024.1,000.0,033.5,026.7,020.5,0000.0,0009.44,0003.18,0002.23
2024-04-26 00:27:00,SystemResetWarning,0817.6,5.02,000.00,024.9,024.1,000.0,033.5,026.6,020.6,0000.0,0009.41,0003.22,0002.22
2024-04-26 00:28:00,SystemResetWarning,0817.6,5.00,000.00,024.9,024.0,000.0,033.5,026.6,020.8,0000.0,0008.61,0003.19,0002.18
2024-04-26 00:29:00,SystemResetWarning,0817.5,4.99,000.00,024.9,024.0,000.0,033.5,026.6,021.1,0000.0,0008.45,0003.15,0002.16
2024-04-26 00:30:00,SystemResetWarning,0817.6,4.99,000.00,024.9,024.0,000.0,033.5,026.6,021.4,0000.0,0008.32,0003.12,0002.13
2024-04-26 00:31:00,SystemResetWarning,0817.4,5.02,000.00,024.9,024.0,000.0,033.5,026.6,021.8,0000.0,0008.02,0003.07,0002.09
2024-04-26 00:32:00,SystemResetWarning,0817.5,5.00,000.00,024.9,024.0,000.0,033.5,026.6,021.1,0000.0,0007.71,0003.00,0002.06
2024-04-26 00:33:00,SystemResetWarning,0817.5,4.98,000.00,024.8,024.0,000.0,033.5,026.6,019.7,0000.0,0008.27,0003.01,0002.05
2024-04-26 00:34:00,SystemResetWarning,0817.6,5.02,000.00,024.8,024.0,000.0,033.4,026.5,019.5,0000.0,0008.06,0003.06,0002.07
2024-04-26 00:35:00,SystemResetWarning,0817.5,5.01,000.00,024.8,023.9,000.0,033.4,026.5,018.8,0000.0,0008.16,0003.09,0002.08
2024-04-26 00:36:00,SystemResetWarning,0817.6,4.99,000.00,024.8,023.9,000.0,033.4,026.5,019.1,0000.0,0007.76,0003.13,0002.09
2024-04-26 00:37:00,SystemResetWarning,0817.6,4.99,000.00,024.8,023.9,000.0,033.4,026.5,020.0,0000.0,0007.57,0003.16,0002.11
2024-04-26 00:38:00,SystemResetWarning,0817.6,4.99,000.00,024.8,023.9,000.0,033.4,026.5,020.4,0000.0,0007.45,0003.13,0002.10
2024-04-26 00:39:00,SystemResetWarning,0817.6,5.00,000.00,024.8,023.9,000.0,033.4,026.6,020.6,0000.0,0007.70,0003.15,0002.11
2024-04-26 00:40:00,SystemResetWarning,0817.6,5.00,000.00,024.8,024.0,000.0,033.4,026.6,021.0,0000.0,0007.95,0003.15,0002.10
2024-04-26 00:41:00,SystemResetWarning,0817.7,5.01,000.00,024.8,024.0,000.0,033.4,026.6,021.4,0000.0,0007.93,0003.17,0002.10
2024-04-26 00:42:00,SystemResetWarning,0817.6,4.99,000.00,024.8,024.0,000.0,033.4,026.6,021.7,0000.0,0007.87,0003.18,0002.10
2024-04-26 00:43:00,SystemResetWarning,0817.5,4.99,000.00,024.8,024.1,000.0,033.4,026.6,022.0,0000.0,0007.97,0003.21,0002.11
2024-04-26 00:44:00,SystemResetWarning,0817.4,5.00,000.00,024.9,024.1,000.0,033.4,026.7,021.7,0000.0,0007.36,0003.20,0002.11
2024-04-26 00:45:00,SystemResetWarning,0817.3,5.00,000.00,024.9,024.1,000.0,033.4,026.7,020.7,0000.0,0006.91,0003.20,0002.11
2024-04-26 00:46:00,SystemResetWarning,0817.3,5.01,000.00,024.9,024.2,000.0,033.4,026.7,020.9,0000.0,0006.74,0003.18,0002.11
2024-04-26 00:47:00,SystemResetWarning,0817.1,5.00,000.00,024.9,024.2,000.0,033.4,026.8,020.8,0000.0,0006.72,0003.15,0002.11
2024-04-26 00:48:00,SystemResetWarning,0817.1,5.01,000.00,024.9,024.2,000.0,033.4,026.8,020.4,0000.0,0006.68,0003.13,0002.12
2024-04-26 00:49:00,SystemResetWarning,0817.1,4.99,000.00,025.0,024.2,000.0,033.4,026.8,020.2,0000.0,0006.97,0003.16,0002.12
2024-04-26 00:50:00,SystemResetWarning,0817.0,5.00,000.00,025.0,024.2,000.0,033.4,026.8,019.7,0000.0,0006.59,0003.14,0002.12
2024-04-26 00:51:00,SystemResetWarning,0816.9,4.99,000.00,025.0,024.2,000.0,033.4,026.9,019.8,0000.0,0006.24,0003.13,0002.13
2024-04-26 00:52:00,SystemResetWarning,0816.9,4.99,000.00,025.0,024.3,000.0,033.5,026.9,020.1,0000.0,0006.34,0003.11,0002.14
2024-04-26 00:53:00,SystemResetWarning,0816.8,5.01,000.00,025.0,024.3,000.0,033.5,026.9,020.2,0000.0,0006.82,0003.11,0002.15
2024-04-26 00:54:00,SystemResetWarning,0816.7,5.00,000.00,025.1,024.3,000.0,033.5,026.9,020.2,0000.0,0006.80,0003.12,0002.15
2024-04-26 00:55:00,SystemResetWarning,0816.6,4.98,000.00,025.1,024.3,000.0,033.5,027.0,020.1,0000.0,0006.57,0003.14,0002.17
2024-04-26 00:56:00,SystemResetWarning,0816.6,5.01,000.00,025.1,024.4,000.0,033.5,027.0,020.0,0000.0,0007.08,0003.14,0002.20
2024-04-26 00:57:00,SystemResetWarning,0816.5,5.01,000.00,025.1,024.4,000.0,033.5,027.0,020.0,0000.0,0007.48,0003.19,0002.24
2024-04-26 00:58:00,SystemResetWarning,0816.5,5.01,000.00,025.1,024.4,000.0,033.5,027.0,020.1,0000.0,0007.58,0003.27,0002.29
2024-04-26 00:59:00,SystemResetWarning,0816.5,4.99,000.00,025.1,024.4,000.0,033.5,027.0,020.0,0000.0,0007.90,0003.37,0002.35
